Flag for Germany Weather past 2 weeks in Neustadt am Rübenberge, Lower Saxony, Germany

Now
-31 °F

Extremely cold.


Feels Like: -31 °F
Forecast: 61 / 78 °F
Wind: 1 mph from North

Location: Wunstorf Airport

Current Time: Jul 26, 2014 at 4:09:42 PM

Latest Report: Jul 26, 2014 at 3:20 PM


Visibility: 4 mi

Pressure: 29.95 "Hg

Humidity: 60%

Dew point: -40 °F

Location of Neustadt am RübenbergeLocation

Historic Weather in Neustadt am Rübenberge — Graph

°F

Neustadt am Rübenberge temperature yesterday

Maximum temperature yesterday: 64 °F (at 1:20 PM)
Minimum temperature yesterday: -31 °F (at 2:20 PM)
Average temperature yesterday: 28 °F

Past Weeks' High & Low Weather Summary

 TemperatureHumidityPressure
High90 °F (Jul 19, 2:20 PM)100% (Jul 16, 5:20 AM)30.18 "Hg (Jul 16, 5:20 AM)
Low-31 °F (Jul 25, 2:20 PM)31% (Jul 19, 2:20 PM)29.68 "Hg (Jul 13, 6:20 PM)
Average62 °F71%29.98 "Hg
* Reported Jul 11 2:20 PM — Jul 26 2:20 PM, Neustadt am Rübenberge, Weather by CustomWeather, © 2014

Note: Actual official high and low records may vary slightly from our data, if they occured in-between our weather recording intervals... More about our weather records

Advertising

Neustadt am Rübenberge weather history for previous 24 hours

 ConditionsComfort  
Time TempWeatherWind HumidityBarometerVisibility
2:20 PM
Jul 26
-31 °FExtremely cold.2 mph67%29.95 "Hg4 mi
1:20 PM-31 °FExtremely cold.3 mph74%29.95 "Hg3 mi
12:20 PM-31 °FExtremely cold.2 mph82%29.98 "Hg3 mi
11:20 AM-31 °FExtremely cold.5 mph82%29.95 "Hg3 mi
10:20 AM-31 °FExtremely cold.6 mph82%29.95 "Hg3 mi
9:20 AM-31 °FExtremely cold.3 mph82%29.95 "Hg3 mi
8:20 AM-31 °FExtremely cold.5 mph90%29.95 "Hg2 mi
7:20 AM-31 °FExtremely cold.2 mph100%29.95 "Hg1 mi
6:20 AM-31 °FExtremely cold.3 mph100%29.92 "Hg1 mi
5:20 AM-31 °FExtremely cold.5 mph100%29.92 "Hg1 mi
4:20 AM-31 °FExtremely cold.3 mph100%29.92 "Hg1 mi
3:20 AM-31 °FExtremely cold.1 mph100%29.92 "Hg1 mi
2:20 AM-31 °FExtremely cold.1 mph100%29.95 "Hg2 mi
1:20 AM-31 °FExtremely cold.No wind100%29.95 "Hg1 mi
12:20 AM-31 °FExtremely cold.2 mph100%29.95 "Hg1 mi
11:20 PM
Jul 25
-31 °FExtremely cold.3 mph100%29.95 "Hg1 mi
10:20 PM-31 °FExtremely cold.No wind100%29.95 "Hg2 mi
9:20 PM-31 °FExtremely cold.2 mph90%29.95 "Hg2 mi
8:20 PM-31 °FExtremely cold.8 mph90%29.95 "Hg2 mi
7:20 PM-31 °FExtremely cold.5 mph100%29.95 "Hg1 mi
6:20 PM-31 °FExtremely cold.3 mph100%29.95 "Hg2 mi
5:20 PM-31 °FExtremely cold.6 mph90%29.95 "Hg2 mi
4:20 PM-31 °FExtremely cold.7 mph90%29.98 "Hg2 mi
Weather by CustomWeather, © 2014

See weather overviewHow to use our weather pages